GFSCGP_700_rhum_000.txt.gz
RH
19 22 27 20 12 12 14 22 25 26 15 20 35 31 27 22 24 25 26 23 22 30 28 29 29 31 34 40 42 55 49 46 52 52 57 59 58 60 58 60 66 75 74 73
18 22 19 20 20 25 24 28 27 29 22 30 38 33 28 28 28 26 26 24 24 28 29 32 33 34 34 34 35 44 47 48 49 59 60 62 66 70 72 76 78 80 80 80
24 26 27 30 30 34 31 32 40 38 34 32 37 35 35 26 26 28 26 24 26 30 32 34 36 38 39 45 52 56 55 55 60 61 65 68 71 76 81 81 80 82 79 65
23 28 31 37 37 32 36 32 31 30 40 28 32 24 41 34 34 32 33 32 34 37 40 43 45 52 54 57 59 60 60 62 64 66 68 73 75 77 79 81 85 88 66 58
27 35 42 46 40 34 50 35 30 32 42 42 39 28 42 42 43 47 40 40 43 46 47 54 56 58 59 62 64 63 62 64 66 71 74 78 80 85 93 90 75 67 60 50
38 39 39 42 39 36 38 31 39 48 52 42 48 39 41 47 52 53 44 46 47 50 52 58 60 60 62 65 65 64 65 71 81 82 90 92 95 96 74 54 52 52 55 55
45 44 44 41 52 49 51 45 37 48 45 40 45 40 53 58 51 50 47 49 52 57 63 59 60 63 65 66 64 68 90 95 94 97 96 97 85 66 71 64 62 56 58 49
46 46 49 41 42 48 44 55 52 49 46 39 47 36 49 56 56 55 56 58 59 60 60 65 68 72 76 82 92 91 97 98 96 84 61 61 60 60 66 64 65 55 45 37
53 53 42 42 45 45 57 59 46 57 58 68 43 52 52 57 67 60 63 62 59 60 66 70 72 73 74 76 78 86 80 66 56 56 56 55 51 51 61 63 57 52 36 17
29 57 43 42 46 52 56 52 56 53 69 42 27 34 36 65 66 70 67 69 67 65 70 77 79 83 94 89 73 70 66 64 63 62 57 63 71 77 73 65 36 19 14 15
19 29 40 34 62 63 67 67 59 55 62 49 51 33 58 60 65 65 74 80 78 69 81 87 81 88 74 67 69 65 63 66 81 75 78 94 92 43 19 20 20 15 25 37
24 23 39 49 45 60 64 71 66 52 54 69 72 54 54 60 65 73 80 86 76 76 96 99 85 83 75 71 70 70 89 100 94 97 91 42 40 36 26 16 15 34 47 60
26 40 41 48 63 67 74 74 63 60 73 76 75 54 62 65 65 73 86 63 70 79 82 83 88 91 91 90 97 98 98 100 87 57 52 48 30 20 12 16 40 57 56 68
18 22 30 31 40 51 53 58 68 71 80 68 66 60 60 60 69 78 81 70 95 99 96 95 98 96 94 98 89 96 97 92 79 63 43 20 12 17 26 52 68 69 74 99
21 30 35 39 25 33 69 55 65 67 75 78 67 62 64 73 73 60 66 100 99 96 95 92 94 82 100 94 77 92 84 46 28 19 12 12 25 39 57 77 80 76 73 70
33 46 33 32 30 36 45 42 61 56 72 79 77 75 78 67 64 70 95 100 99 92 84 89 89 100 97 80 71 50 36 24 13 9 11 24 44 65 88 91 84 68 51 29
38 40 46 50 39 41 50 43 50 63 73 76 74 72 63 82 86 91 87 88 85 90 90 83 78 96 83 67 37 24 20 15 11 11 16 37 59 94 93 88 60 23 12 16
40 47 63 60 55 79 55 49 52 53 53 71 76 77 69 90 100 99 91 75 74 96 86 79 90 91 53 31 23 19 15 15 19 23 34 65 84 100 94 68 17 15 23 25
48 50 64 83 87 71 53 57 61 71 65 72 68 68 72 85 92 99 78 76 90 90 82 91 72 45 41 38 32 20 20 21 22 28 67 88 100 99 68 32 16 24 24 19
56 61 70 97 96 82 72 62 68 65 78 77 73 88 96 88 92 86 89 91 79 84 81 59 50 44 44 34 24 21 22 24 31 43 80 89 80 73 59 17 24 24 20 30
64 71 77 99 100 91 82 74 78 93 98 94 99 92 96 96 96 87 60 74 87 81 67 53 64 52 38 29 25 22 26 29 37 66 95 88 76 70 22 23 26 21 34 51
76 82 87 89 97 96 75 94 98 92 84 100 99 95 94 93 79 61 70 82 86 80 70 64 52 40 30 25 23 24 29 40 63 99 100 85 71 29 23 27 22 31 53 64
87 69 81 86 74 88 99 98 86 90 100 100 98 97 84 76 68 73 69 80 74 66 64 50 34 26 25 25 24 26 37 54 95 100 97 78 31 22 27 21 29 51 64 63
79 81 90 99 73 98 97 90 74 76 86 93 98 85 68 45 55 60 55 69 68 60 47 34 29 29 27 25 40 80 77 83 100 97 92 47 22 26 21 25 52 67 62 69
78 94 89 94 88 98 87 82 76 100 99 93 80 60 39 37 45 52 50 52 60 48 29 32 35 30 28 33 40 63 91 99 99 96 77 28 29 23 22 46 62 64 65 75
67 90 99 88 96 95 85 79 96 81 79 76 59 50 57 58 58 62 66 60 36 27 33 35 28 36 48 54 66 85 100 99 97 93 35 32 23 22 43 61 65 58 69 72

GFSCGP_700_rhum_003.txt.gz
RH
25 21 22 27 25 22 18 17 17 19 27 22 27 21 28 31 30 32 29 30 30 31 46 71 57 35 33 36 46 84 95 61 50 54 54 55 56 62 76 72 77 73 72 75
19 26 30 28 29 27 24 22 21 25 26 21 27 24 30 33 37 35 34 36 42 46 60 56 33 32 37 43 78 77 70 51 53 59 53 55 62 72 70 80 77 80 80 86
24 32 18 29 32 31 29 27 34 32 30 27 27 26 29 34 37 39 41 44 44 51 59 45 39 36 36 36 39 44 49 51 54 58 58 62 64 68 76 84 83 87 89 86
31 17 31 36 38 33 31 39 40 35 31 24 27 20 31 31 37 42 48 51 50 52 56 48 40 43 49 50 53 54 54 55 56 56 62 64 71 83 84 91 86 87 95 49
37 41 43 41 44 29 42 27 41 39 32 28 26 21 37 32 35 43 53 58 57 41 44 45 52 56 57 56 56 58 59 56 55 56 60 66 69 80 94 94 79 45 54 52
40 32 46 49 41 30 39 46 43 42 35 32 32 28 31 35 42 49 60 68 68 60 49 52 56 58 57 57 58 60 58 59 61 72 84 95 86 67 54 52 48 49 51 54
41 47 50 33 45 50 40 37 36 40 37 36 38 29 40 48 50 53 64 69 76 52 56 60 61 69 62 64 65 64 64 67 89 95 77 60 51 54 57 57 58 60 61 60
34 44 49 36 41 49 44 44 47 41 38 31 35 25 40 52 57 61 66 70 73 65 58 59 66 72 91 76 80 81 86 89 72 54 54 60 66 70 68 73 78 75 67 54
40 44 47 28 48 46 46 46 44 54 56 57 28 32 47 55 59 62 67 74 79 85 90 92 93 96 66 66 71 72 72 60 66 67 67 69 72 75 78 77 79 64 43 31
38 46 43 47 36 50 53 48 50 43 58 36 21 21 36 56 52 60 58 66 74 83 88 89 89 96 100 96 77 76 68 69 82 87 87 85 94 96 96 70 56 45 33 14
37 44 47 46 52 48 52 52 52 39 46 44 40 31 48 48 56 60 64 66 68 74 81 85 94 84 93 100 100 91 96 87 92 98 99 100 97 80 76 60 39 17 11 20
18 51 44 38 38 30 58 54 48 47 42 50 58 51 53 54 56 66 69 70 78 81 86 92 97 98 96 100 100 98 83 90 87 98 98 96 92 59 38 16 11 12 27 43
29 60 41 38 62 64 54 57 54 65 62 62 63 52 58 64 74 59 68 82 82 98 95 93 94 100 98 100 88 92 99 94 87 84 66 51 38 18 12 10 9 18 41 59
15 58 48 39 36 41 44 43 45 51 61 59 57 51 48 55 60 63 70 88 90 91 93 99 98 95 90 87 99 99 87 70 53 43 31 21 14 12 12 13 42 82 78 70
32 61 60 50 46 45 47 48 47 45 48 57 59 54 55 61 73 77 84 92 96 99 99 87 88 82 86 78 82 82 84 38 25 19 17 14 12 13 21 51 64 81 78 56
30 72 32 31 53 51 52 48 46 48 56 54 54 55 68 75 75 85 90 98 99 86 86 85 90 90 78 87 87 100 98 100 56 24 40 18 24 29 56 77 98 100 57 23
35 38 44 46 42 47 54 45 50 51 54 66 62 62 68 79 93 89 96 99 91 82 82 83 80 78 90 91 71 90 100 95 75 100 100 100 96 74 94 100 100 100 99 97
39 44 50 48 57 85 68 60 59 60 63 59 60 68 86 92 98 97 94 99 82 70 50 49 68 70 67 60 58 85 98 97 98 99 95 99 99 100 100 100 100 98 99 100
45 52 54 75 74 64 65 70 67 70 62 68 85 94 75 81 92 96 99 82 60 43 43 66 87 75 67 62 76 84 91 92 98 98 97 98 99 99 99 97 100 98 100 100
51 57 67 96 97 79 75 75 88 68 74 95 83 77 73 83 97 99 76 57 41 53 86 90 93 88 84 77 65 76 84 90 92 98 92 100 100 98 98 99 97 100 100 100
55 63 74 100 91 83 75 81 72 86 88 87 80 72 79 93 99 75 52 52 92 87 85 88 83 81 78 38 37 84 85 92 98 92 84 100 99 98 98 98 100 97 100 87
69 82 84 91 99 91 83 87 89 96 99 90 78 84 90 99 81 85 71 86 87 82 81 78 78 79 37 64 87 86 79 96 97 98 93 100 99 99 100 100 100 100 100 59
72 82 85 88 78 76 94 98 96 98 92 98 98 97 94 88 97 95 92 88 86 82 74 79 83 83 87 92 91 92 82 74 76 92 98 97 100 100 100 84 100 100 82 50
44 76 83 94 87 96 92 97 99 97 91 87 87 93 100 100 90 93 90 88 84 77 81 81 87 92 93 93 94 100 63 68 78 93 100 98 97 27 26 81 100 79 47 53
52 86 87 93 93 97 83 94 96 94 70 50 62 86 76 76 95 96 91 85 85 87 89 90 93 93 94 98 100 100 66 77 93 98 97 89 36 31 21 30 50 40 46 56
41 86 93 96 98 86 99 95 97 95 76 70 76 80 78 98 95 89 88 90 91 86 85 90 89 90 98 95 71 60 71 87 91 94 90 45 29 21 31 33 38 40 50 54

GFSCGP_700_rhum_009.txt.gz
RH
23 27 28 25 22 20 18 18 21 23 22 20 17 25 26 28 29 29 29 30 29 29 32 52 57 59 66 75 76 71 67 72 82 76 72 59 63 77 66 70 76 79 74 80
24 27 27 23 23 15 19 21 26 26 28 16 22 26 25 28 30 30 30 31 32 31 33 50 56 62 65 68 70 67 64 59 68 68 62 65 72 79 81 85 71 73 85 97
26 27 15 29 26 25 25 22 28 29 29 15 23 29 30 32 35 35 36 37 44 44 47 52 51 55 69 75 67 50 56 52 55 58 64 68 82 84 74 73 84 82 83 55
27 20 31 32 32 27 34 32 30 27 24 26 24 33 33 36 35 38 44 49 50 46 43 43 50 43 46 44 48 55 56 61 64 62 68 63 66 70 72 77 77 66 65 69
37 37 38 36 35 22 39 28 20 18 30 30 26 28 36 39 46 46 43 46 44 48 48 43 44 53 48 50 55 58 59 60 55 60 64 70 72 68 66 68 64 72 77 82
35 32 29 25 30 37 38 38 37 37 38 42 35 34 39 49 48 51 52 51 53 52 63 66 63 55 51 55 60 58 56 57 55 60 60 53 51 57 66 72 78 82 85 98
42 41 33 40 45 44 34 39 46 53 64 63 40 42 53 51 52 53 61 68 66 69 60 61 73 86 76 66 58 51 44 41 46 50 56 68 78 85 96 100 100 100 100 100
42 46 44 22 41 40 42 43 43 64 81 54 23 49 59 51 59 63 65 57 61 64 66 73 75 82 100 100 89 59 56 59 53 63 68 64 72 85 100 78 100 96 91 73
45 45 41 12 21 40 48 26 36 46 48 54 46 55 54 54 57 59 60 68 70 73 71 78 73 93 87 97 99 86 73 75 89 92 86 90 96 100 98 100 96 83 58 28
49 41 32 48 52 46 40 34 46 41 63 52 39 55 57 57 60 58 62 63 66 78 90 80 72 84 83 82 83 80 73 73 84 73 67 91 100 99 93 95 69 40 26 21
46 38 42 48 34 42 49 48 42 38 42 62 80 51 54 62 60 60 62 66 69 73 82 81 83 74 78 92 88 66 68 64 48 46 60 58 62 48 68 57 54 41 34 34
26 38 41 38 40 22 34 48 45 40 54 51 53 44 53 53 61 68 75 77 77 80 76 74 72 76 84 78 75 73 58 34 20 18 18 26 34 87 78 75 56 45 54 29
20 31 44 50 55 47 44 48 44 46 47 45 50 48 61 62 66 76 91 78 65 69 72 72 76 68 76 89 89 60 32 20 19 35 44 61 76 85 98 92 61 98 82 70
22 26 36 45 43 41 38 39 40 43 52 45 48 44 44 64 70 87 85 81 77 74 76 78 77 76 83 81 52 26 25 28 41 36 45 56 63 81 89 66 90 94 96 73
16 49 36 29 27 33 37 41 44 44 43 44 42 49 60 65 76 88 79 78 82 86 64 64 75 78 72 39 25 40 44 36 29 29 39 62 67 88 91 96 91 97 95 51
17 28 25 29 44 40 30 34 36 40 45 44 44 50 71 65 80 77 78 78 72 66 60 67 84 68 40 38 53 70 51 39 42 50 58 35 81 92 88 95 98 94 61 59
22 23 25 31 34 30 56 52 52 50 51 53 54 57 73 73 74 78 80 74 67 62 60 80 72 44 48 72 79 72 66 60 55 59 43 64 87 85 94 89 94 92 72 78
25 24 26 30 32 64 59 56 49 55 58 58 58 68 69 69 72 84 78 72 62 64 72 71 47 69 78 82 70 54 59 57 60 32 30 46 63 67 72 82 96 92 76 86
27 29 33 36 37 29 41 50 49 55 55 54 52 56 65 82 92 90 77 68 67 77 67 45 64 74 64 49 45 56 58 57 41 37 45 54 59 53 55 80 98 98 86 76
29 34 37 45 49 72 65 67 63 66 59 57 59 78 79 78 79 76 69 60 47 26 32 44 67 67 65 63 62 54 47 45 65 72 76 69 54 62 66 68 83 96 87 81
38 44 45 49 60 34 34 53 47 69 57 62 64 72 74 84 88 78 61 38 29 45 55 78 84 81 62 56 46 31 44 75 65 68 72 61 64 74 81 85 96 100 91 52
38 36 39 70 90 63 44 57 66 67 72 80 83 87 87 96 97 80 50 34 35 65 81 87 84 59 40 34 28 28 71 76 66 56 58 54 66 73 80 90 100 97 57 23
58 39 44 48 37 42 58 82 86 73 67 81 76 85 83 91 95 82 53 48 63 73 75 57 31 23 22 28 22 41 46 50 51 54 59 61 64 69 83 91 72 27 22 25
47 60 63 70 64 69 84 82 84 83 87 88 89 80 94 96 86 65 55 57 55 47 27 26 19 17 17 18 25 32 39 40 47 62 60 65 68 79 77 40 24 24 26 26
29 40 47 50 64 68 77 76 77 85 87 98 99 100 96 90 79 58 43 36 27 23 19 15 15 15 18 24 28 27 30 46 49 63 64 72 80 58 29 22 28 27 23 27
29 41 54 54 59 56 63 78 88 88 98 98 91 89 67 52 25 24 25 26 21 14 13 13 14 17 22 26 24 28 32 49 55 71 73 85 68 31 22 26 31 31 29 34

GFSCGP_700_rhum_012.txt.gz
RH
22 26 24 21 22 21 23 21 21 22 23 22 23 23 24 27 26 28 28 28 27 26 29 56 63 62 76 74 78 78 81 99 77 62 68 74 69 77 92 99 100 100 98 85
29 30 27 24 18 20 24 24 24 23 22 21 31 32 31 30 29 29 30 30 29 32 47 48 51 68 71 68 70 70 73 62 65 73 80 82 93 99 99 98 97 80 76 91
26 25 28 31 27 25 26 26 29 30 29 28 30 41 36 38 36 34 38 38 41 45 46 53 49 51 60 60 69 72 66 61 80 94 94 97 99 99 93 80 78 83 80 69
28 24 31 32 27 28 30 34 33 31 21 19 28 39 51 49 41 39 39 44 50 54 49 53 56 50 48 53 57 61 63 66 66 67 70 70 66 62 60 56 53 56 61 54
31 37 38 37 31 22 29 25 22 23 21 29 31 36 56 44 42 44 44 44 42 42 38 36 43 53 59 55 59 61 60 58 54 39 35 39 42 45 46 47 56 55 65 87
34 34 28 27 36 40 38 38 39 41 39 43 42 38 55 50 41 42 44 45 44 46 44 47 43 41 56 61 59 56 46 42 40 45 49 55 55 52 51 51 80 100 98 93
40 31 32 39 42 39 36 39 43 55 65 60 36 45 57 53 52 50 48 53 58 48 48 54 57 45 46 43 50 50 57 71 72 72 63 60 59 61 62 85 100 98 98 97
44 44 37 23 45 43 40 36 43 62 70 49 47 60 68 60 60 64 70 65 59 65 66 81 80 69 70 71 80 88 91 96 87 72 66 64 66 96 100 100 72 94 96 83
46 40 34 36 42 43 40 39 42 48 51 53 56 60 58 57 59 65 74 73 71 76 84 82 84 85 80 92 90 95 98 93 77 70 64 50 38 44 80 43 36 29 59 63
42 34 44 51 38 34 28 35 38 40 58 53 52 57 56 59 63 65 66 68 75 83 82 82 81 75 78 90 99 100 92 83 81 76 48 25 18 14 13 12 16 73 83 82
27 24 45 40 38 45 45 41 35 38 45 63 78 57 60 60 66 70 64 66 69 82 93 92 89 87 91 95 94 82 67 69 79 46 15 14 12 11 11 13 40 89 65 64
36 37 46 40 33 32 37 41 36 32 52 46 56 55 66 64 62 63 65 69 76 93 98 88 86 83 81 80 79 76 76 66 45 15 14 13 14 24 42 41 58 64 99 96
30 36 43 53 47 39 51 52 42 41 39 41 45 40 62 63 63 64 65 64 79 86 82 81 78 84 68 58 57 63 64 44 17 13 11 13 33 51 56 54 69 78 95 98
24 30 35 33 31 34 38 41 41 44 47 46 46 43 46 50 52 54 61 63 69 74 80 83 86 67 56 51 55 53 34 19 15 16 18 41 54 47 33 50 92 100 97 87
20 18 25 35 40 43 36 32 38 43 44 47 44 46 45 51 60 68 73 77 84 85 90 94 71 55 52 57 50 20 21 24 43 34 47 47 42 17 47 70 81 83 80 83
13 21 23 22 24 29 27 27 29 33 41 47 48 51 58 67 67 68 74 80 86 90 92 69 60 56 53 29 16 22 36 49 42 38 35 31 19 26 32 32 38 49 92 95
17 18 22 24 33 38 29 35 33 43 48 51 54 52 55 62 71 77 82 84 87 84 76 63 56 38 15 14 25 43 41 45 54 26 18 16 22 36 38 41 48 58 80 92
24 23 24 26 32 51 37 31 39 49 47 49 51 55 61 71 81 83 83 84 86 81 68 59 37 19 15 24 44 66 43 54 18 13 13 22 35 43 46 50 54 60 83 82
26 27 26 28 34 27 32 44 42 43 45 54 59 60 58 62 71 86 91 83 80 73 63 46 27 20 34 51 68 56 43 20 14 13 19 33 41 39 50 56 62 67 72 97
29 30 31 30 35 47 22 27 32 34 36 31 41 50 59 82 96 93 86 81 85 71 53 32 24 30 41 55 55 32 17 16 17 29 32 43 43 47 53 60 70 78 92 100
31 35 33 37 41 28 21 32 38 54 32 42 45 63 74 76 79 80 81 86 94 82 61 22 24 35 60 64 22 15 15 19 24 24 33 46 43 56 64 65 72 90 100 98
33 33 32 45 50 43 26 38 42 36 39 44 56 73 86 84 84 75 80 99 89 58 18 19 26 43 34 19 15 14 17 21 24 24 48 47 56 63 70 73 82 81 52 29
48 30 30 32 26 32 36 45 53 50 55 51 65 88 98 100 94 89 97 90 53 19 18 28 34 18 16 15 14 15 16 21 22 26 45 65 68 70 77 81 54 27 25 31
27 40 44 41 34 42 56 62 72 78 85 91 95 93 96 99 94 92 89 40 23 21 31 21 16 14 13 14 14 15 16 19 21 35 50 70 69 77 80 42 28 24 30 29
29 39 37 43 58 68 69 70 81 77 75 83 89 86 99 88 80 68 34 29 25 23 18 15 13 12 13 13 13 13 14 19 25 37 57 79 78 83 65 31 24 28 33 28
33 35 37 36 43 58 60 65 60 63 84 98 98 99 87 82 66 37 24 21 19 18 14 12 13 13 14 14 15 16 18 26 38 50 72 88 88 90 47 26 22 28 36 30

GFSCGP_700_rhum_018.txt.gz
RH
22 23 19 16 17 17 19 18 20 20 20 21 22 25 22 23 22 21 21 24 25 27 37 44 48 56 60 67 90 100 98 96 91 75 71 72 84 98 99 90 92 97 88 69
24 23 23 23 23 21 22 23 26 25 22 21 22 24 24 24 21 22 22 23 23 29 41 42 35 61 78 84 79 79 86 94 75 70 81 92 98 86 84 76 60 56 53 53
26 28 28 28 25 20 23 27 29 24 25 26 30 34 29 24 21 23 26 30 33 35 40 49 57 60 62 59 54 52 59 60 59 65 70 64 60 64 59 57 58 63 60 52
26 29 31 28 27 25 26 30 32 29 27 36 35 54 55 39 38 41 45 48 55 56 56 55 50 41 38 40 43 54 62 67 66 67 74 73 61 52 50 51 50 48 49 48
31 31 30 26 26 27 31 32 31 30 30 32 36 39 64 73 65 58 62 71 72 60 49 48 51 38 52 46 40 43 56 64 69 64 50 49 48 52 62 66 57 50 50 42
26 28 31 30 29 29 28 33 31 35 35 46 43 43 56 54 50 62 63 58 55 55 56 56 43 46 61 58 49 54 56 59 58 53 54 56 68 78 77 71 59 48 28 18
35 33 30 33 32 32 33 38 46 56 65 69 49 50 40 47 50 55 51 55 58 61 58 52 52 67 69 53 54 67 75 76 76 75 75 87 83 71 63 56 37 20 13 10
28 32 36 41 40 39 38 40 43 56 78 61 50 54 48 47 57 58 59 66 63 62 61 62 63 62 62 65 70 80 90 95 93 96 85 63 58 57 46 22 12 10 9 7
44 31 26 44 46 44 33 31 43 43 52 56 54 57 53 51 57 61 63 62 62 63 65 64 58 58 66 74 85 96 100 100 98 79 69 52 48 22 12 11 10 8 6 6
42 35 38 44 43 44 35 37 33 37 54 48 60 63 49 55 58 61 61 61 63 62 60 57 63 69 76 85 91 100 100 93 90 77 54 36 15 13 12 10 8 6 6 6
44 35 41 46 41 38 39 31 28 32 41 63 79 53 44 49 50 52 56 60 61 63 65 68 74 78 82 84 88 95 97 98 89 62 26 18 14 13 10 8 7 7 7 8
45 28 42 46 40 35 35 29 28 27 39 43 49 31 33 50 59 60 61 62 66 68 69 72 77 85 96 98 99 97 98 97 64 27 22 19 16 12 10 8 7 7 8 9
41 37 42 39 33 30 32 34 31 28 30 37 57 27 27 29 43 59 64 67 71 68 72 78 84 96 100 99 97 98 97 49 32 28 23 20 16 11 9 8 8 9 10 13
42 32 30 24 25 29 34 28 31 38 38 34 32 25 28 34 41 51 56 61 67 71 77 83 93 100 100 99 97 96 65 50 34 24 18 15 12 9 8 8 9 10 12 17
35 36 32 27 26 22 23 23 24 30 31 37 22 24 27 37 45 50 54 64 69 71 82 87 94 98 95 98 95 62 61 50 26 16 15 12 10 9 9 9 10 14 17 24
25 26 24 32 29 28 26 26 26 27 25 25 26 16 22 31 40 46 49 56 63 77 86 93 99 98 98 92 86 76 59 26 17 15 14 11 10 9 10 11 14 15 24 33
14 23 23 26 21 24 22 10 11 12 15 17 21 15 24 24 34 44 52 59 73 86 93 98 98 97 97 94 84 68 32 17 16 15 12 10 10 10 12 15 15 17 35 42
12 13 18 24 24 47 12 11 12 12 13 15 16 17 24 28 36 41 51 64 78 89 98 99 98 89 82 85 72 28 17 17 17 13 10 10 10 11 12 14 23 27 47 55
29 26 24 23 30 21 15 14 13 14 16 15 21 24 25 28 35 28 42 67 86 94 100 92 83 78 86 77 29 18 18 18 13 11 10 11 12 12 13 20 30 36 54 66
38 32 34 28 31 43 17 15 13 15 26 15 19 26 26 27 28 28 66 83 99 100 96 98 89 89 88 34 17 18 17 14 12 11 11 12 14 14 17 26 36 49 64 78
24 22 29 35 37 27 20 20 20 32 17 23 22 26 33 37 37 40 57 79 91 91 100 97 97 92 35 19 18 17 14 13 12 11 13 15 17 17 26 36 51 68 78 83
30 27 26 35 47 40 18 24 26 23 26 30 34 42 47 48 51 58 71 84 87 89 98 96 92 41 19 17 17 15 14 13 12 14 16 19 21 23 34 43 61 79 89 74
37 30 30 28 23 23 26 31 35 37 42 44 50 50 57 59 67 90 97 100 99 100 96 87 47 22 20 20 15 14 13 12 14 16 19 23 24 31 46 52 71 89 94 56
26 26 28 27 23 26 31 32 38 43 42 55 64 74 75 82 93 89 91 91 98 95 94 48 21 20 21 15 14 13 12 13 16 20 24 26 27 40 51 60 81 92 84 34
34 32 30 33 31 38 42 42 46 46 47 48 60 75 91 97 93 97 88 99 97 91 54 28 32 20 14 14 12 12 12 14 20 26 28 29 32 46 53 66 85 92 59 28
34 36 43 43 45 56 55 57 55 55 57 63 69 78 81 90 96 96 98 97 94 75 55 75 40 14 13 10 11 13 16 22 27 32 33 34 36 55 63 73 88 84 39 26

GFSCGP_700_rhum_021.txt.gz
RH
26 22 20 18 21 17 16 16 20 21 21 22 24 25 26 22 22 22 22 22 27 33 38 44 45 46 52 61 72 86 91 93 97 85 75 79 76 93 100 95 73 53 53 54
24 22 17 16 17 17 22 23 24 24 21 21 20 22 24 24 24 22 22 23 26 32 35 49 50 48 55 68 75 68 80 76 78 69 66 68 74 67 57 58 59 60 63 59
24 24 24 25 23 22 26 24 25 25 25 24 25 26 23 23 24 22 22 22 23 26 31 43 54 55 59 52 45 37 46 55 61 65 66 68 62 55 51 51 51 53 53 50
27 29 30 32 28 28 25 27 28 25 27 33 29 31 30 28 24 23 24 30 38 45 52 57 49 39 46 43 56 52 44 46 59 67 70 56 56 56 57 56 64 63 51 41
28 29 32 32 28 28 30 32 32 30 29 30 34 37 35 37 39 37 43 48 53 56 57 49 58 59 52 56 55 54 51 54 57 65 59 63 59 61 61 56 50 45 34 18
27 32 29 29 29 28 29 37 35 33 31 38 34 38 37 35 32 43 54 63 66 61 55 56 50 46 59 65 55 50 58 68 76 75 77 82 80 72 58 52 42 22 13 12
31 31 30 32 34 31 30 35 45 48 54 48 47 51 34 36 39 54 57 62 59 56 56 55 56 61 63 57 61 63 67 75 84 90 90 94 82 67 55 34 18 16 16 11
32 33 29 31 33 30 30 37 38 52 61 54 52 56 44 43 41 61 66 60 58 57 58 61 65 67 58 62 68 74 77 85 89 90 94 86 83 66 38 26 21 17 11 7
29 28 31 34 41 42 37 38 41 44 51 52 46 48 39 42 45 54 62 59 59 58 60 64 64 63 63 67 76 85 88 92 94 100 94 89 82 46 27 25 16 11 8 6
37 37 33 38 47 48 44 33 40 37 51 46 46 50 38 34 38 50 55 54 57 60 62 62 64 62 66 71 83 91 100 100 100 99 96 86 39 29 29 20 13 8 6 6
43 39 43 41 42 39 41 37 28 32 35 43 48 30 18 18 31 41 45 51 58 62 62 64 66 66 72 83 93 96 91 98 100 100 81 40 40 31 21 13 9 7 6 7
46 38 38 43 40 38 39 34 26 26 35 40 42 24 17 17 22 46 55 57 59 64 64 68 68 72 80 91 100 99 100 100 99 87 45 49 30 21 13 10 8 7 7 8
45 41 39 45 40 38 30 26 26 25 26 30 53 18 16 19 25 32 53 61 64 65 65 70 70 75 88 100 99 99 99 100 90 57 51 29 21 14 11 9 8 7 8 8
44 40 33 30 23 25 28 23 27 32 28 23 18 13 15 22 27 31 45 52 55 63 68 72 78 86 100 99 99 95 99 94 76 54 28 20 15 12 10 9 8 9 9 10
32 40 38 33 25 23 25 26 26 26 23 26 14 15 14 17 23 32 44 54 54 59 68 76 87 95 99 97 95 99 91 83 58 27 19 16 13 11 10 9 9 10 11 16
28 27 33 34 32 29 25 21 19 21 22 21 20 12 14 19 23 27 36 46 50 59 70 84 93 100 98 97 99 83 83 72 35 20 17 14 12 11 10 10 11 12 14 21
25 24 27 27 23 30 32 13 13 12 10 11 16 11 18 18 22 25 34 42 52 64 77 90 99 96 100 99 82 85 83 48 20 16 15 14 13 11 10 11 13 14 19 27
15 15 26 26 26 44 14 12 12 12 11 11 10 11 18 22 24 22 26 27 32 54 74 93 100 96 99 92 88 91 64 22 17 16 14 14 12 10 11 14 16 18 26 34
37 27 20 22 29 17 13 13 14 15 14 13 13 14 23 30 31 24 26 25 30 61 88 94 92 99 97 98 97 76 26 16 16 15 14 13 11 11 13 19 19 23 32 42
46 44 36 29 29 48 17 15 15 16 19 15 17 20 30 37 31 33 32 33 39 68 96 100 97 92 98 96 90 31 16 17 15 14 14 11 11 14 19 22 22 31 40 52
37 31 34 37 40 27 19 20 22 28 22 26 26 26 28 29 34 37 42 49 62 75 94 100 99 98 97 95 45 17 18 15 14 14 11 10 13 18 22 24 27 40 50 64
42 34 29 31 40 35 22 24 29 31 30 34 39 41 40 47 50 54 60 80 91 94 98 91 97 97 94 50 29 38 16 14 14 10 9 10 16 23 25 27 35 45 56 72
44 38 34 32 26 26 28 30 32 33 34 39 48 54 61 66 74 82 88 90 96 89 94 100 100 97 62 43 67 28 15 15 10 8 10 15 23 27 29 32 41 47 60 77
34 32 30 28 24 27 33 41 44 47 47 47 48 52 58 72 78 87 94 99 100 99 99 100 93 96 79 84 33 20 24 10 9 13 20 24 28 32 35 35 46 54 68 83
38 32 30 33 36 45 49 52 59 60 64 64 65 64 64 68 81 86 98 94 100 98 98 92 95 94 77 37 40 29 9 9 13 21 23 26 31 41 40 36 52 64 76 81
33 39 46 49 48 63 59 61 64 67 66 67 65 63 64 67 77 87 99 95 99 98 97 95 92 72 48 50 22 10 10 12 21 26 27 31 36 44 43 40 62 72 78 63

GFSCGP_700_rhum_024.txt.gz
RH
29 32 28 23 21 21 18 19 17 19 13 16 22 14 21 24 21 20 23 26 30 34 38 46 52 54 60 66 73 75 85 84 84 88 81 73 76 68 55 60 58 55 55 55
30 29 24 23 20 19 22 20 26 19 20 26 24 23 23 25 23 21 22 24 28 28 36 45 49 53 58 60 69 79 78 57 66 83 68 64 59 56 56 57 59 58 54 48
30 27 21 22 22 22 21 28 26 29 21 22 37 35 22 23 22 23 23 23 24 26 29 33 41 54 64 70 64 43 46 48 51 61 60 64 60 60 65 70 65 59 54 49
29 27 29 26 25 27 28 25 26 24 32 25 26 21 38 24 23 23 24 23 23 26 34 50 54 45 49 49 50 48 50 48 49 52 61 60 72 74 76 74 66 56 49 35
27 28 30 36 29 28 31 28 37 29 33 32 34 27 44 30 27 24 23 23 28 41 52 59 46 54 53 55 54 60 53 52 60 64 72 79 80 85 82 78 66 51 30 25
30 32 33 30 26 25 26 31 33 33 37 30 29 33 21 50 41 30 29 34 43 53 56 52 54 47 51 62 53 56 58 64 72 80 87 88 84 81 82 79 72 34 29 26
39 38 32 30 31 31 35 38 30 39 37 31 42 38 22 34 27 31 35 41 52 63 58 56 52 56 65 59 60 63 69 73 80 86 89 91 94 96 84 78 42 38 30 20
30 36 33 34 41 36 41 37 29 29 30 27 50 33 32 33 32 39 51 61 62 62 57 56 59 65 64 60 66 72 78 82 85 89 98 98 99 96 82 49 40 31 23 13
33 36 30 29 37 36 38 36 42 43 46 50 30 40 38 37 38 43 60 67 65 59 57 59 64 66 64 65 70 76 83 93 95 94 99 98 98 92 62 50 30 25 14 10
29 41 31 29 36 42 44 37 42 43 46 34 24 31 25 33 34 41 56 54 62 60 60 61 65 64 64 66 75 81 88 93 99 100 99 98 96 78 52 32 23 14 12 9
34 34 46 32 42 43 48 44 33 40 37 27 24 15 13 18 22 30 40 48 53 56 60 62 69 66 67 70 75 84 95 98 100 99 98 90 81 55 33 23 14 12 10 8
39 42 50 48 36 36 39 44 37 29 35 48 47 21 13 10 13 20 40 51 54 58 63 68 71 67 70 74 81 91 89 96 100 98 98 87 60 35 24 15 13 12 9 8
40 46 48 49 46 41 46 36 34 23 21 40 57 18 11 11 12 15 24 45 56 60 66 70 69 66 70 76 84 89 93 100 99 100 94 64 34 24 15 14 13 11 9 8
44 45 44 39 33 33 46 34 26 31 39 29 31 18 22 12 13 15 18 26 39 56 66 70 68 67 72 79 91 89 100 100 100 95 74 36 24 16 15 14 13 10 9 9
39 48 43 39 35 28 23 28 25 30 29 36 19 25 18 26 19 18 18 23 32 46 57 59 63 68 74 83 92 93 99 100 96 83 58 28 18 16 15 14 12 9 10 12
35 39 32 34 35 35 29 24 26 35 33 27 24 20 17 13 16 15 15 20 25 38 47 56 66 73 80 92 99 100 98 97 81 76 44 19 16 15 15 13 10 10 12 14
41 33 30 40 27 34 40 23 21 19 15 15 32 16 26 14 20 21 20 23 22 35 41 50 64 80 91 99 100 99 98 93 89 66 21 16 16 15 14 11 10 10 13 17
31 26 31 31 26 68 23 15 14 13 12 12 13 14 15 18 22 28 30 27 26 23 23 33 64 89 97 99 99 94 97 96 86 27 18 18 15 15 12 9 10 13 17 20
33 21 20 24 41 24 15 13 12 15 15 15 15 15 20 20 32 33 32 28 30 30 30 37 76 98 99 94 94 90 95 96 50 20 19 15 15 12 8 9 12 17 21 24
49 45 35 31 40 82 22 17 17 17 32 23 22 22 21 22 26 40 31 29 31 35 40 43 63 87 85 98 97 100 97 73 30 45 21 17 13 8 8 11 16 23 25 28
42 43 46 46 43 32 25 23 24 37 36 28 27 28 32 35 43 37 40 45 52 56 64 73 81 92 94 100 99 96 90 46 53 20 34 16 8 9 12 17 24 27 29 35
48 40 35 36 41 46 24 26 32 38 29 29 32 40 47 52 54 60 66 73 78 85 89 92 90 91 98 98 98 97 67 77 56 56 16 8 9 13 17 22 29 31 32 42
51 43 38 35 38 30 31 32 36 39 38 39 42 45 47 51 54 56 64 74 81 86 79 90 98 99 99 97 96 95 89 84 67 17 9 9 13 19 21 24 33 36 37 52
43 38 37 36 33 31 40 44 47 50 54 56 57 58 58 58 60 60 62 70 86 93 100 99 95 99 97 94 95 92 91 70 16 9 10 14 23 26 24 27 35 39 43 63
50 48 40 37 36 47 47 49 54 62 65 65 64 67 72 74 76 78 77 83 94 100 100 98 99 96 97 96 94 92 57 13 10 12 15 24 30 26 25 34 42 43 48 72
51 48 51 52 52 48 50 59 65 63 65 66 70 76 79 84 85 83 79 90 98 100 100 99 96 94 94 96 87 50 28 13 14 15 22 29 29 29 31 40 46 46 54 76

GFSCGP_700_rhum_027.txt.gz
RH
36 35 32 26 28 24 19 21 13 18 25 19 16 24 30 31 41 52 58 70 79 60 54 62 65 68 72 63 71 74 80 87 92 84 84 64 82 90 64 54 51 44 43 45
35 38 34 29 26 24 18 17 18 22 18 21 21 23 35 24 46 50 55 65 73 87 36 50 54 59 68 61 70 81 88 90 84 60 70 78 77 59 54 47 44 50 55 54
41 36 32 30 24 21 20 19 22 21 26 24 26 28 43 26 46 46 62 66 74 85 34 42 46 48 62 59 61 72 75 53 50 58 70 66 60 53 51 55 63 66 69 64
56 39 34 26 26 24 24 24 27 27 30 24 26 19 30 47 25 22 22 54 83 49 34 30 30 37 52 57 45 43 60 54 50 56 57 55 64 93 81 94 86 82 76 76
51 34 31 27 30 23 46 24 30 28 25 34 27 21 29 49 48 29 23 24 26 26 27 32 41 51 46 54 53 54 54 51 49 55 62 73 78 88 96 96 94 87 82 58
54 26 37 36 27 28 26 35 35 32 22 25 18 22 22 37 38 54 54 33 32 32 35 44 50 46 51 50 59 51 52 56 61 67 72 77 81 86 85 89 97 85 57 49
34 32 35 28 36 30 32 30 28 32 28 28 27 26 19 17 38 45 77 63 75 44 42 46 52 52 49 60 57 53 57 63 69 73 77 82 89 97 97 98 88 77 57 42
28 34 36 34 34 31 32 27 29 30 26 20 31 21 19 27 35 49 80 72 71 50 52 56 55 52 59 61 56 61 66 68 74 80 86 94 98 98 99 98 85 64 48 32
26 32 34 31 39 32 31 32 33 34 34 35 19 15 32 25 35 53 77 88 78 62 60 59 56 56 63 62 60 64 69 73 74 80 87 94 94 100 98 81 64 51 35 21
31 31 36 36 28 28 36 36 32 29 35 32 16 17 18 40 38 53 70 80 90 89 68 60 57 58 63 62 61 65 73 73 74 76 84 95 100 98 89 66 51 36 21 17
32 30 42 43 38 27 43 34 33 34 36 33 23 16 24 25 38 46 60 73 83 88 90 67 60 60 65 66 65 70 73 74 74 79 93 100 99 90 73 57 39 21 18 15
35 32 34 38 39 34 40 35 36 33 28 35 44 26 20 10 32 41 49 63 75 81 85 94 68 62 65 70 71 70 73 79 77 86 97 99 93 82 68 42 25 18 16 14
43 31 34 39 43 45 35 33 35 33 38 32 47 23 29 11 9 24 38 54 68 73 80 91 86 63 66 71 74 68 76 81 90 92 100 98 96 81 54 27 18 17 15 12
34 35 36 35 33 33 41 35 34 35 36 28 23 20 24 28 31 32 40 41 55 70 78 90 95 67 68 72 74 69 76 87 92 93 100 97 85 64 33 19 18 16 14 10
38 46 40 38 43 40 36 31 35 33 30 26 27 19 14 17 21 27 34 44 46 64 58 64 67 68 68 71 72 73 77 89 98 100 100 96 77 49 23 20 22 16 12 8
46 46 51 56 50 44 41 36 30 29 27 24 23 22 23 26 26 33 34 44 46 55 68 33 46 57 61 71 67 74 85 94 96 100 98 94 75 31 20 52 28 14 9 8
66 56 51 40 44 39 36 18 28 30 29 31 30 27 26 31 39 42 41 49 24 26 27 29 34 39 57 73 68 82 93 100 100 99 98 96 60 24 44 22 16 9 9 11
50 49 52 48 31 69 23 21 21 24 25 27 27 27 27 29 39 23 27 33 55 31 26 26 26 27 47 66 72 89 98 100 100 99 99 81 35 46 33 50 10 8 12 16
39 51 27 41 38 29 27 20 20 23 21 31 36 33 33 36 19 26 52 40 32 32 28 29 33 35 47 54 73 100 100 100 100 97 96 69 56 52 82 22 8 10 15 20
42 35 44 30 54 84 44 22 17 18 34 42 28 35 31 24 41 40 52 45 37 30 37 43 51 57 60 68 93 100 100 100 99 97 94 71 61 92 26 8 9 14 19 22
53 54 52 61 65 52 42 30 25 35 50 40 25 24 29 47 48 53 43 42 43 54 64 63 68 71 78 82 94 100 99 98 98 96 62 83 81 21 9 10 16 20 22 26
45 44 44 73 66 56 37 32 41 57 37 37 28 34 37 39 43 46 46 49 58 62 74 79 89 90 89 89 99 99 97 96 95 94 95 71 27 14 11 14 22 22 23 32
63 62 64 50 52 52 33 35 34 32 32 37 42 43 52 53 57 60 83 60 62 65 72 78 85 86 90 96 98 99 98 97 94 93 64 44 40 15 16 19 21 23 29 38
56 49 44 42 44 49 51 39 46 54 57 50 54 60 63 64 67 72 97 71 75 82 77 76 84 98 100 99 99 95 95 95 94 82 62 39 13 13 18 24 25 24 29 39
60 57 54 55 43 54 61 73 75 46 57 64 65 70 73 68 75 81 91 81 84 83 84 90 100 99 100 97 97 97 95 93 90 65 28 17 14 15 25 27 28 34 37 48
62 68 59 67 65 44 48 56 49 61 62 67 70 75 77 83 87 90 93 98 99 100 100 98 100 100 97 96 94 94 93 85 54 42 40 24 20 23 30 28 27 40 43 50

GFSCGP_700_rhum_030.txt.gz
RH
41 40 36 40 38 30 26 23 21 18 19 20 25 23 25 32 39 56 64 74 80 68 62 44 53 66 67 50 47 71 76 86 88 95 91 64 52 52 57 78 63 50 44 40
43 36 33 51 34 32 27 25 20 19 21 21 17 19 25 30 36 43 57 65 73 80 59 33 51 61 65 65 61 74 75 83 89 91 69 58 60 54 59 56 50 41 42 50
63 48 43 42 31 26 22 21 24 21 19 14 20 17 27 33 36 37 45 53 66 78 70 47 51 60 53 47 62 71 66 72 79 64 50 49 47 56 58 50 42 49 61 67
53 46 41 32 28 24 26 35 26 24 24 23 24 25 37 40 41 44 46 51 58 69 80 67 40 30 37 50 64 63 64 52 55 53 48 45 61 60 50 54 65 74 80 83
50 43 40 35 35 35 28 28 29 23 23 31 30 42 36 46 31 50 58 61 62 70 81 80 33 28 34 43 61 50 50 53 47 52 50 54 62 65 71 77 83 96 97 86
33 38 56 50 29 35 31 30 30 26 23 50 31 41 40 44 34 48 55 65 75 66 64 71 77 30 42 52 51 50 55 53 49 51 58 65 69 76 81 89 100 100 100 85
31 29 35 38 32 29 27 26 31 63 63 48 23 26 22 32 47 41 51 67 75 61 84 92 82 38 48 48 50 56 56 52 51 53 58 66 76 79 85 92 88 95 96 72
34 30 30 27 29 37 30 24 40 72 83 40 28 23 24 24 35 44 62 82 84 93 81 64 53 58 49 51 53 59 55 54 56 58 62 67 76 83 92 88 91 98 91 68
43 52 45 36 31 32 30 30 29 30 44 38 24 17 21 30 17 39 67 76 90 85 65 55 54 54 54 53 56 60 57 57 56 59 61 71 76 82 92 98 99 96 66 50
38 69 44 38 28 25 21 30 32 28 39 38 20 18 34 33 36 39 64 80 90 93 86 68 63 59 58 55 57 62 60 61 59 57 66 73 79 90 96 99 100 80 55 42
33 56 39 41 35 24 38 37 28 24 30 50 51 25 22 26 32 36 51 68 77 78 73 61 64 64 62 58 60 64 66 69 64 65 72 78 86 97 100 100 92 71 46 30
30 32 30 34 34 32 33 37 32 35 32 33 36 38 24 13 24 37 44 55 69 73 76 83 74 79 71 67 66 64 68 73 69 69 75 88 96 99 99 99 96 76 30 20
38 37 31 29 35 39 35 29 29 33 36 38 58 32 29 20 19 22 34 45 57 68 79 85 89 89 83 67 67 67 69 73 73 71 85 98 100 100 98 98 88 46 20 26
38 39 29 35 30 35 40 36 28 30 38 38 28 23 24 25 28 28 30 32 44 56 68 76 81 88 96 82 68 79 76 75 74 80 95 100 100 99 100 99 84 22 28 65
29 38 33 30 32 39 39 32 30 29 30 34 32 26 22 19 22 24 26 32 37 40 54 66 74 83 94 100 94 94 86 74 73 92 100 100 100 99 97 93 49 22 40 22
42 52 45 50 46 43 43 40 36 30 26 27 25 23 22 24 27 27 30 34 36 44 45 55 68 78 93 99 100 98 85 77 64 100 100 99 99 98 100 88 33 23 37 87
63 48 58 51 45 44 35 28 23 28 29 27 28 28 29 29 27 34 37 41 43 41 44 48 65 69 88 98 98 100 99 92 77 100 98 100 100 97 97 83 57 42 89 34
67 61 61 52 42 58 25 29 24 28 31 28 26 27 28 29 31 31 26 37 31 47 58 50 36 45 71 89 95 100 100 96 98 100 100 98 96 96 96 79 63 80 30 17
62 69 58 48 47 34 29 27 26 27 22 31 34 34 34 36 23 32 47 51 48 43 42 39 34 46 52 64 80 84 76 76 100 98 98 97 97 97 92 79 88 48 65 23
46 62 57 33 57 77 46 35 25 19 30 43 36 38 27 26 38 44 56 65 59 50 45 45 46 54 70 77 76 76 78 92 97 97 96 94 95 96 93 90 93 62 20 19
55 45 47 58 46 49 47 44 36 36 55 54 45 31 27 28 42 56 54 45 45 58 67 65 72 83 96 99 95 91 94 99 99 99 98 96 94 95 95 87 53 30 19 21
40 48 51 71 86 67 49 40 39 61 59 44 29 28 33 43 37 42 60 81 81 67 81 81 72 78 85 82 83 91 98 97 99 95 96 95 95 95 79 60 43 20 22 24
54 59 65 51 56 57 46 38 42 48 33 31 41 49 52 58 65 76 74 91 97 87 88 74 72 79 84 93 99 98 100 96 97 96 94 94 93 85 58 46 31 21 21 24
60 60 56 58 44 50 52 54 60 70 54 47 47 52 68 64 63 73 84 96 99 90 79 90 95 100 100 100 100 100 97 96 94 95 93 86 75 57 46 28 21 23 25 26
63 66 53 61 56 53 56 67 71 62 60 49 54 67 62 68 75 74 74 76 84 93 100 100 100 100 99 97 96 95 95 90 69 56 61 56 61 46 29 24 24 27 33 34
64 65 63 62 68 51 58 58 54 53 51 51 60 64 71 71 72 77 79 80 85 92 100 100 99 97 90 89 90 83 68 47 56 61 60 44 34 31 32 29 24 31 39 44